CAPE
0 0 0 0 0 0 0 0 0 0 1 3 2 0 0 0 0 1 0 0 7 12 17 20 18 28 26 24 26 23 35 26 28 18 19 39 38 33 14 28 9 10 15
0 0 0 0 0 0 0 0 0 0 2 3 1 0 0 0 0 9 8 2 10 17 21 13 20 24 37 41 46 33 41 53 19 6 24 25 32 40 66 23 21 17 7
0 0 0 0 0 0 0 0 0 3 5 3 4 1 0 0 0 0 1 7 8 10 13 19 24 30 23 26 28 22 21 34 26 41 43 47 39 50 26 21 19 25 15
0 0 0 0 0 0 0 1 1 4 11 9 13 8 0 0 0 0 0 0 0 11 21 34 29 16 6 33 42 18 34 30 22 18 28 35 18 26 29 22 20 17 17
0 0 0 0 0 0 0 1 2 6 8 9 10 11 4 0 1 10 3 3 4 9 51 76 89 64 59 32 33 30 46 16 15 38 18 21 37 25 13 11 4 8 11
0 0 0 0 0 0 0 0 4 8 4 5 9 6 13 5 0 0 0 0 0 3 21 60 115 61 7 34 27 12 8 35 32 35 32 15 12 5 13 12 12 8 11
0 0 0 0 0 0 0 2 8 10 10 12 14 12 9 12 0 0 0 0 0 15 58 78 107 50 11 35 5 12 29 40 38 22 11 11 10 10 12 6 12 10 15
0 0 0 0 0 0 0 0 10 17 15 17 20 11 4 14 0 0 0 4 24 52 65 74 36 38 0 0 0 0 3 17 25 16 12 19 26 6 5 9 4 7 11
0 0 0 0 0 0 1 6 14 9 17 15 12 4 4 32 30 9 4 39 23 70 62 51 34 11 0 0 0 0 0 23 10 1 8 0 0 0 0 0 7 1 1
0 0 0 0 0 2 4 8 7 12 6 7 7 3 30 17 7 4 0 39 8 64 89 13 0 0 0 0 0 0 16 9 0 8 4 9 12 20 4 0 1 2 1
2 0 0 0 0 5 8 4 13 12 1 0 9 16 33 46 15 0 0 0 0 0 1 12 0 0 0 0 0 0 1 0 0 12 11 12 16 13 9 9 18 0 1
2 0 0 0 3 6 5 9 10 0 0 0 16 40 53 2 1 0 0 0 0 0 0 1 0 0 0 0 0 0 0 0 8 5 7 4 5 7 13 16 14 22 11
1 1 1 4 4 5 8 5 0 0 5 24 37 55 23 10 0 0 0 0 0 0 0 0 0 0 0 0 0 0 0 13 4 6 8 5 5 4 9 20 18 22 22
4 1 4 4 3 4 1 0 0 1 10 27 6 2 4 28 5 0 0 0 0 0 0 0 0 0 0 3 12 3 4 1 0 0 5 11 8 13 19 24 21 18 19
8 5 3 0 1 0 1 0 8 0 3 9 23 13 3 8 0 0 0 0 0 0 0 1 6 8 7 14 3 8 19 9 23 1 6 1 2 14 8 8 16 20 26
4 3 2 1 2 0 0 0 0 0 0 0 0 0 0 0 0 0 0 0 0 0 0 16 14 16 26 12 21 5 7 1 1 0 1 9 5 1 6 10 10 18 13
5 6 1 0 0 0 2 0 0 0 0 0 0 0 0 0 0 0 0 0 0 0 1 8 13 7 0 14 30 17 1 7 0 0 2 2 3 6 8 9 6 12 16
5 0 0 0 0 0 5 5 2 0 0 0 0 0 0 0 0 0 0 0 0 3 8 9 7 15 11 3 1 4 4 0 0 5 1 5 9 12 9 10 6 4 14
0 0 0 0 0 1 7 29 12 1 1 0 0 0 0 0 0 0 0 0 8 10 7 5 6 13 27 19 6 0 0 6 8 3 4 6 10 10 11 12 10 3 1
0 0 0 0 0 1 8 18 28 24 15 8 2 0 0 0 0 4 5 10 9 8 4 3 5 12 17 19 9 8 1 6 1 2 1 3 8 7 6 11 6 6 12
0 0 0 0 0 0 14 21 20 13 7 3 0 0 0 0 0 0 2 4 5 3 1 1 1 5 6 5 5 2 2 2 2 0 1 1 2 1 2 3 11 10 8
0 0 0 0 0 8 13 13 21 6 7 7 0 0 0 0 0 0 0 1 1 1 0 0 0 1 1 0 2 4 3 0 0 0 0 0 0 0 0 0 0 3 2
0 0 0 0 2 0 8 18 11 9 5 0 0 0 0 0 0 0 0 0 0 0 0 0 0 0 0 0 0 1 0 0 0 0 0 0 0 0 0 0 0 1 3
0 0 1 0 0 13 12 7 1 0 0 0 0 0 0 0 0 0 0 0 0 0 0 0 0 0 0 0 0 0 0 0 0 0 0 0 0 0 0 0 0 0 0
0 1 3 9 7 11 1 7 0 0 0 0 0 0 0 0 0 0 0 0 0 0 0 0 0 0 0 0 0 0 0 0 0 0 0 0 0 0 0 0 0 0 0
8 4 5 17 15 16 3 0 0 0 0 0 0 0 0 0 0 0 0 0 0 0 0 0 0 0 0 0 0 0 0 0 0 0 0 0 0 0 0 0 0 5 2
CIN
0 0 0 0 0 0 0 0 0 0 0 -1 -1 0 0 0 0 0 0 0 -1 -1 -1 -2 -3 -4 -2 -1 -9 -1 -2 -2 -1 -3 -9 -2 -6 -2 -34 -2 -2 -9 -4
0 0 0 0 0 0 0 0 0 -1 -1 -1 -1 0 0 0 0 -1 0 -2 -1 -2 -1 -1 -2 -1 -5 -6 -2 -6 -4 -3 -4 -9 -4 -5 -8 -1 -6 -2 -2 -1 -2
0 0 0 0 0 0 0 0 -1 -1 -1 -1 -1 -1 0 0 0 0 -1 0 0 -1 -1 -1 -2 -4 -6 -6 -6 -2 -6 -7 -15 -2 -3 -5 -3 -4 -2 -16 -4 -3 -2
0 0 0 0 0 0 0 -1 -1 -2 -1 -1 -1 -1 0 0 0 0 0 0 -1 -1 -1 -3 -5 -3 -2 -5 -2 -2 -4 -6 -2 -2 -1 -1 -9 -3 -6 -3 -2 -2 -2
0 0 0 0 0 0 0 -1 -1 -1 -1 -1 -1 -1 -1 0 -2 -2 -1 -1 -2 -2 -1 -1 -3 -10 -11 -13 -6 -2 -3 -2 -2 -2 -3 -2 -3 -3 -2 -4 -5 -3 -2
0 0 0 0 0 -1 -1 -1 -1 -1 0 0 -1 -2 -1 -1 0 0 0 0 0 -17 -4 -5 -1 -3 -6 -10 -18 -22 -15 -10 -1 -2 -1 -6 -2 -3 -4 -1 -1 -1 -1
0 0 0 0 0 -2 0 -2 -2 -1 -1 -1 -1 -1 -2 -1 -2 0 0 0 -5 -31 -7 -3 -2 -3 -16 -5 -12 -3 -11 -15 -22 -9 -6 -2 -2 -1 -2 -2 -1 -1 -1
0 0 0 0 0 0 -2 -1 -2 -1 -1 -1 -1 -1 -1 -1 0 0 0 -33 -32 -10 -5 -4 -2 -4 0 0 0 0 -1 -1 -5 -4 -4 -1 -1 -4 -4 -1 -1 -1 -2
0 0 0 0 0 -2 -2 -2 -2 -2 -1 -2 -1 -1 -1 -2 -6 -29 -50 -22 -11 -2 -8 -4 -17 -19 0 0 0 0 0 -2 -4 -11 -10 -9 0 0 0 0 -1 0 0
0 0 0 0 0 -2 -1 -2 -5 -1 -2 -2 -1 -1 0 -7 -8 -61 0 -27 -23 -5 -5 -60 0 0 0 0 0 0 -1 -3 -1 -1 -5 -3 -4 -2 -13 -6 -14 0 0
-2 -1 0 0 -1 -1 -2 -3 -2 -1 -2 0 -2 -2 -1 -12 -25 0 0 0 0 0 -2 -70 0 0 0 0 0 -6 -9 0 -1 -2 -3 -3 -3 -5 -6 -3 -1 0 0
-3 -1 0 -1 -1 -2 -5 0 -2 -1 0 0 -4 -2 -3 -13 -4 0 0 0 0 0 0 -1 0 0 0 0 0 0 0 0 -5 -5 -4 -13 -4 -4 -2 -3 -1 -1 0
-1 -1 -2 -2 -1 -4 -2 -2 0 0 -4 -5 -4 -1 -12 -23 0 0 0 0 0 0 0 0 0 0 0 0 0 0 -1 -1 -4 -3 -2 -2 -4 -3 -4 -1 -8 -1 -4
-1 -1 -1 -2 -2 -1 -1 0 0 -2 -4 -5 -14 -49 -17 -3 -9 0 0 0 0 0 0 0 0 0 0 -17 -3 -4 -2 0 0 0 -5 -2 -4 -2 -1 -2 -2 -2 -1
0 -2 -1 -2 -2 -1 -3 0 -13 0 -26 -5 -15 -7 -11 -7 0 0 0 0 0 0 0 -1 -28 -4 -21 -8 -3 -2 -1 -8 -1 -3 -1 -2 -4 -2 -3 -3 -4 -3 -1
-1 -1 -2 -1 -3 0 0 0 0 0 0 0 0 0 0 0 0 0 0 0 0 0 0 -3 -3 -2 -4 -3 -6 -2 -4 -3 -1 0 -1 -1 -4 -2 -2 -2 -5 -2 -4
-2 -1 -2 0 0 0 -3 0 0 0 0 0 0 0 0 0 0 0 0 0 0 0 -25 -4 -5 -2 0 -4 -1 -1 -2 -4 0 0 -2 -3 -2 -2 -3 -2 -2 -3 -3
-1 0 0 0 0 0 -2 -10 -12 0 0 0 0 0 0 0 0 0 0 0 -2 -2 -14 -4 -5 -2 -10 -3 -2 -1 -1 0 0 -1 -1 -5 -4 -1 -4 -6 -4 -6 -1
0 0 0 0 0 -2 -4 -3 -9 -29 -2 0 0 0 0 0 0 0 0 -1 -3 -4 -4 -5 -3 -4 -5 -1 -1 0 0 -2 -2 -1 -1 -1 -2 -2 -1 -2 -3 -7 -4
0 0 0 0 -1 -2 -4 -2 -2 -3 -12 -17 -8 -4 0 0 0 -2 -3 -3 -3 -4 -4 -3 -4 -5 -2 -2 -2 -1 -3 -1 -3 -2 -1 -2 -2 -2 -2 -2 -2 -2 -2
0 0 0 0 0 -2 -5 -4 -4 -6 -6 -10 0 0 0 0 0 -2 -3 -3 -3 -2 -1 -4 -3 -2 -2 -3 -3 -2 -3 -3 -2 -3 -1 -2 0 -2 -2 -2 -3 -5 -4
0 0 0 0 0 -4 -5 -2 -3 -10 -11 -3 0 0 0 0 0 0 0 -3 -2 -1 -3 0 0 -2 -3 -3 -2 -3 -1 -2 0 0 0 0 0 0 0 -2 -3 -4 -3
0 0 0 0 -8 0 -5 -2 -4 -7 -2 0 0 0 0 0 0 0 0 0 0 0 0 0 0 0 0 0 0 -3 -1 0 0 0 0 0 0 0 0 0 0 -2 -2
0 0 -2 -1 0 -2 -4 -3 -2 0 0 0 0 0 0 0 0 0 0 0 0 0 0 0 0 0 0 0 -1 -1 0 0 0 0 0 0 0 0 0 0 0 0 0
-1 -3 -4 -2 -4 -3 -7 -2 0 0 0 0 0 0 0 0 0 0 0 0 0 0 0 0 0 0 0 -1 0 0 0 0 0 0 0 0 0 0 0 0 0 0 0
-6 -4 -3 -3 -2 -2 -2 0 0 0 0 0 0 0 0 0 0 0 0 0 0 0 0 0 0 0 0 -1 0 0 0 0 0 0 0 0 0 0 0 0 -1 -3 -1
Wind_Speed
5 6 7 8 9 10 11 12 12 12 11 11 13 15 16 16 14 14 16 17 18 19 20 20 22 22 24 26 27 28 28 31 32 33 31 32 31 29 27 26 30 29 30
7 6 7 8 9 9 11 12 12 12 12 12 13 14 15 15 13 13 14 18 18 20 21 22 24 26 26 26 25 27 30 26 24 28 32 31 29 26 26 28 28 31 30
7 6 7 8 9 9 10 11 11 12 12 12 13 12 13 14 12 12 14 15 17 18 19 20 22 22 23 25 28 30 28 31 30 29 31 29 25 28 26 26 26 28 29
6 5 6 7 8 8 9 10 10 10 10 11 11 12 11 10 11 11 12 14 16 17 18 17 18 21 25 23 31 32 30 33 29 32 34 31 27 28 28 28 32 32 38
6 3 5 6 7 8 9 9 9 10 10 10 10 11 10 9 8 9 13 15 16 18 18 24 23 24 23 26 23 28 29 28 29 32 32 33 33 34 34 32 32 39 39
6 3 4 5 6 7 8 9 9 9 9 9 9 9 9 8 14 14 13 13 15 17 18 20 23 23 23 22 19 22 21 22 26 28 28 30 30 32 31 33 39 37 38
6 4 5 4 5 7 8 8 8 9 9 9 9 9 8 8 10 11 12 13 14 14 16 20 21 24 30 26 29 25 22 18 16 21 26 27 31 32 34 36 33 35 34
7 6 5 4 5 6 7 7 8 9 9 9 8 9 8 8 9 9 10 13 13 13 17 19 22 28 27 29 29 29 29 27 24 22 24 25 28 29 28 31 30 28 28
7 5 5 4 5 6 7 7 8 9 9 9 9 9 8 9 9 10 12 15 16 20 23 20 22 23 27 28 30 30 27 25 26 21 21 19 19 18 15 28 27 29 23
8 6 5 4 4 5 7 7 9 8 9 8 9 8 8 8 14 15 18 17 18 20 18 20 23 24 26 28 30 29 29 28 29 23 23 22 19 19 12 11 17 13 16
6 8 6 4 4 6 8 9 9 9 9 9 9 9 8 12 19 18 21 20 24 24 23 19 20 24 27 29 28 26 27 25 21 21 20 27 23 26 28 26 13 14 10
8 8 5 4 5 7 8 9 9 9 9 9 8 9 12 14 11 19 22 23 24 23 20 23 25 29 26 27 27 27 24 21 20 21 26 28 28 30 30 29 15 7 5
9 7 5 5 6 8 8 9 9 9 7 7 9 12 17 15 13 18 18 18 18 22 20 22 18 21 24 21 24 25 25 24 25 28 29 27 27 30 28 13 9 1 6
8 8 5 5 7 8 9 9 8 9 8 13 13 12 9 14 18 21 22 18 16 20 21 19 15 19 23 22 24 25 22 24 29 28 28 24 29 29 29 30 31 30 29
7 6 5 5 6 8 10 10 13 16 14 13 16 18 17 17 20 24 25 24 22 21 20 18 15 23 27 24 24 20 23 21 29 28 29 28 27 28 29 31 31 31 31
7 6 5 6 7 7 8 9 16 17 17 16 16 16 19 19 21 22 22 20 19 18 19 21 24 26 28 27 24 23 21 28 29 28 7 22 27 27 27 27 30 31 31
6 6 5 6 7 7 9 10 11 14 16 17 18 18 19 20 21 20 17 16 15 17 16 25 26 26 27 23 20 8 25 30 27 9 4 16 21 24 25 28 30 29 30
5 5 6 7 8 8 9 9 11 11 13 14 16 16 17 19 19 19 15 14 14 12 17 25 25 25 23 21 11 7 6 15 6 1 11 16 23 25 26 28 28 27 28
6 6 7 8 8 9 11 11 11 11 12 14 14 12 12 14 14 13 14 15 23 23 24 24 24 23 21 20 18 16 7 6 3 7 20 23 25 25 26 26 27 24 24
7 7 9 9 9 10 11 12 12 12 13 13 12 18 17 13 14 16 18 20 21 23 24 24 21 17 20 20 18 13 13 4 2 3 12 19 23 25 24 25 26 26 27
8 10 8 9 10 11 12 12 12 13 14 16 19 21 18 16 19 20 20 22 23 23 23 22 13 14 20 20 20 17 8 5 6 5 16 21 21 20 22 21 22 25 30
9 10 10 11 11 12 13 13 14 14 14 15 15 16 17 14 20 21 21 22 22 21 22 18 13 17 23 26 17 11 11 7 5 9 18 21 19 20 21 21 19 22 20
11 11 11 12 13 14 13 14 14 14 16 16 17 18 19 20 21 21 22 22 22 22 20 15 16 21 26 22 18 13 24 28 6 11 10 12 15 15 16 13 8 7 11
10 10 11 12 12 13 14 14 16 17 17 17 18 18 19 20 21 22 22 22 22 21 19 16 19 24 23 23 17 30 30 24 11 8 10 11 10 13 8 8 7 7 8
11 11 12 14 15 15 15 15 16 17 17 17 18 19 20 20 22 23 22 23 22 20 15 18 21 23 24 20 31 35 21 9 8 8 8 11 8 6 6 8 8 9 8
11 13 14 15 15 16 16 16 16 17 18 18 19 20 21 22 22 23 23 24 23 19 14 20 23 25 24 30 35 26 10 15 14 14 8 7 6 7 10 13 15 19 13
Wind_Direction
99 77 70 59 54 52 48 43 42 41 41 43 34 28 24 24 26 24 18 16 12 9 8 7 4 2 356 351 348 343 343 337 333 332 334 335 335 334 336 332 332 331 328
115 86 80 69 62 60 50 47 47 45 42 39 34 30 27 27 32 31 23 10 9 6 3 1 359 353 354 354 352 348 342 345 342 336 336 335 334 336 337 335 334 334 332
123 101 88 78 66 60 55 51 45 43 41 38 35 33 29 29 35 30 19 12 9 6 2 1 357 357 355 355 352 347 344 341 339 337 335 337 337 336 338 337 336 337 335
131 105 90 79 64 59 53 49 45 41 39 39 37 31 30 36 35 29 20 12 8 3 359 358 355 348 347 348 345 346 345 340 341 338 336 337 340 339 338 337 332 334 327
140 111 91 80 62 58 50 48 43 41 38 38 39 33 34 36 33 29 15 7 4 358 356 349 352 354 351 348 348 348 348 347 344 341 340 338 338 337 335 335 334 322 313
158 133 99 76 60 50 44 44 42 39 39 40 39 37 33 32 20 9 6 6 2 356 354 354 352 350 360 353 360 353 352 349 347 344 343 341 341 339 338 335 315 303 310
147 148 118 88 68 50 46 46 42 42 41 39 38 33 29 27 20 15 11 5 359 353 349 354 354 355 351 353 350 352 350 346 342 349 346 346 342 337 334 322 300 308 319
166 149 127 103 74 49 44 48 43 41 37 40 38 31 33 32 23 18 11 2 357 350 352 354 357 353 356 353 352 349 349 351 357 354 350 348 343 343 342 308 319 333 343
181 162 137 112 80 52 44 52 43 37 38 43 35 34 39 30 24 18 9 360 355 352 355 358 357 356 357 356 353 349 350 353 355 356 354 357 360 3 9 331 338 343 1
184 168 142 117 71 45 47 49 38 39 39 45 41 44 37 29 13 11 2 360 360 1 1 4 2 2 359 356 353 352 349 350 349 355 354 355 5 5 15 12 3 10 7
183 155 142 108 58 49 51 40 44 44 41 45 39 34 32 18 6 11 7 7 360 359 0 10 14 5 359 357 357 356 351 352 357 358 357 345 356 339 324 340 11 13 13
173 151 134 82 60 51 47 43 46 52 45 54 47 33 23 20 34 14 9 6 4 2 4 2 358 359 2 3 5 4 6 6 4 358 340 341 337 312 312 327 13 22 20
163 151 119 76 60 52 49 46 58 51 57 61 39 28 25 32 30 17 16 16 16 11 9 3 7 7 6 7 8 6 6 6 358 328 319 343 346 305 290 270 19 335 24
158 138 109 77 60 54 51 62 71 59 60 39 26 28 50 29 20 15 9 10 11 6 5 3 14 10 10 10 8 7 12 6 338 313 325 359 331 306 304 320 314 336 296
150 129 102 68 65 58 50 48 32 23 32 32 29 28 23 25 13 6 5 6 6 9 13 12 22 11 4 5 5 9 8 13 334 323 336 309 294 301 305 314 308 312 308
144 124 103 71 72 74 64 50 18 26 27 29 28 32 24 21 15 11 12 18 21 22 17 13 8 7 5 5 5 9 14 343 334 301 33 283 297 293 293 292 303 306 301
137 113 91 70 74 79 76 72 52 32 34 32 30 31 26 21 15 15 20 27 26 22 16 10 8 11 9 14 22 254 3 337 300 51 236 269 280 287 290 300 303 300 299
122 103 88 78 82 84 83 84 62 55 50 39 35 35 30 25 26 29 30 24 16 17 16 11 11 15 20 26 41 46 246 32 51 65 263 273 283 288 288 294 295 290 292
115 104 93 83 82 87 77 69 68 64 60 45 38 41 39 33 34 34 32 26 18 18 15 15 15 19 27 28 30 31 54 46 270 267 282 286 287 287 289 288 290 284 284
112 102 95 89 74 85 74 60 63 62 43 39 46 31 29 27 27 26 26 23 20 18 17 17 22 35 29 28 32 42 40 40 298 307 275 282 285 285 282 285 286 287 289
106 111 89 83 83 84 65 65 62 46 42 38 28 21 24 31 25 25 25 22 20 19 19 21 42 42 29 28 27 33 42 37 34 20 285 289 286 280 280 278 280 285 294
106 107 98 88 88 72 65 65 58 51 42 38 40 37 39 42 27 27 25 23 22 23 23 32 49 36 22 14 29 34 33 28 10 285 287 289 285 283 282 281 279 283 305
107 99 90 83 66 70 71 63 57 48 38 39 36 33 34 30 31 29 27 25 26 25 30 48 42 28 17 22 27 34 13 5 323 290 295 290 287 284 282 278 293 308 6
102 90 78 69 76 79 68 65 49 34 39 43 38 38 36 35 33 30 29 29 29 31 40 47 36 24 24 23 32 3 3 11 14 353 300 297 295 287 291 290 297 299 305
95 78 74 79 85 69 71 65 53 49 45 45 44 41 38 37 33 31 31 31 32 37 52 43 32 26 23 30 3 351 298 302 328 328 314 292 298 307 312 303 316 339 355
78 78 79 83 73 77 70 62 57 53 52 51 46 42 39 36 35 34 33 32 33 41 57 39 30 24 26 12 356 311 314 301 299 297 323 360 2 342 1 10 10 12 10